Find Starlink 31174

NORAD ID: 58808 Int'l Des: 2024-012 Owner: SPXS Country: US Constellation: starlink operational
LEOCIRCULAR

Current View

Loading 3D Globe...

About Starlink 31174

Description loading...

Upcoming Passes

Passes for default location (London). Set your location on the main map for personalized predictions.

Altitude History

Loading altitude history...

Two-Line Element Set

1 58808U 24012X 26150.76942334 -.00000349 00000-0 -31415-5 0 9997
2 58808 43.0006 61.3004 0001410 280.4582 79.6110 15.27573182133791
Epoch: May 30, 2026 • Age: 17 hours

Current Status

Altitude 484.5 km
Velocity 7.62 km/s
Sub-Earth Point -9.26°S, 166.58°W
Launch Date Jan 15, 2024
Age 2.3 years
Type internet

Technical Details

Classification Payload
Mass 730.00 kg
Dry Mass 700.00 kg
Total Mass 730.00 kg
Length 0.30 m
Diameter 4.10 m
Span 29.00 m
Shape Box + pan
Manufacturer SPXS
Bus Type Starlink V2M
Phase Status In Orbit
Owner/State SPXS/US

Most Searched